Location: Allentsteig
(48.6833°N, 15.3167°E)
Time: 22:56:38
(UTC+00:00)

USA 238 DEB - Pass Details

Date: 25 January 2021
Orbit: 995 x 1217 km, 63.4° (Epoch: 07 March)

Event Time Altitude Azimuth Distance (km) Brightness Sun altitude
Rises 05:31:59 0° 226° (SW) 3,725 6.3 -10.7°
Reaches altitude 10° 05:34:32 10° 228° (SW) 2,795 5.6 -10.3°
Maximum altitude 05:41:06 76° 313° (NW) 1,083 3.6 -9.3°
Drops below altitude 10° 05:48:05 10° 40° (NE) 2,947 6.3 -8.2°
Sets 05:50:50 0° 42° (NE) 3,940 7.0 -7.8°
